{"data":{"norad_id":57986,"intl_designator":"2023-152A","name":"YAOGAN-39 03A","alt_names":[],"object_type":"PAYLOAD","status":"ACTIVE","operator":null,"country":"PRC","launch_date":"2023-10-05","launch_site_code":"XICLF","launch_vehicle":null,"mission":null,"orbit_class":"UNKNOWN","rcs_meters":null,"size_class":null,"mass_kg":null,"dimensions":null,"purposes":[],"wikipedia_slug":null,"has_3d_model":false,"image_url":null,"decayed_at":null,"tle_current":{"epoch":"2026-05-25T04:30:11.847168Z","epoch_age_seconds":49118,"freshness":"FRESH","line1":"1 57986U 23152A   26145.18763712  .00008836  00000+0  36713-3 0  9998","line2":"2 57986  35.0009  57.1691 0005262 309.7163  50.3087 15.23059580146931","mean_motion":15.2305958,"eccentricity":0.0005262,"inclination_deg":35.0009,"raan_deg":57.1691,"arg_perigee_deg":309.7163,"mean_anomaly_deg":50.3087,"bstar":0.00036713,"rev_number":14693,"period_min":94.546531134389,"perigee_km":493.00083075096,"apogee_km":500.2358232571,"semimajor_km":6874.755327004,"source":"CELESTRAK","updated_at":"2026-05-25T13:38:00.393976Z"}}}